Hourly Data Report for July 31, 2021

LYNN LAKE
MANITOBA
Current Station Operator: NAVCAN

56°51'50.000" N
101°04'34.000" W
356.60 m
5061645
71078
YYL

Download Data

Hourly Data (July 2021)
Hourly Data Report for July 31, 2021
TIME
LST
Temp Definition
°C
Dew Point Definition
°C
Rel Hum Definition
%
Precip. Amount Definition
mm

Wind Dir Definition
10's deg

Wind Spd Definition
km/h
Visibility Definition
km
Stn Press Definition
kPa
Hmdx Definition


Wind Chill Definition


Weather Definition


00:00 13.0 8.7 75 0.0 31 11 16.1 97.89     LegendNANA
01:00 11.2 8.6 84 0.0 33 9 16.1 97.93     LegendNANA
02:00 11.9 8.9 82 0.0 36 9 16.1 97.97     LegendNANA
03:00 9.3 8.0 91 0.0 32 11 16.1 98.02     LegendNANA
04:00 9.5 8.6 94 0.0 30 11 16.1 98.07     LegendNANA
05:00 10.4 9.1 91 0.0 30 11 16.1 98.11     LegendNANA
06:00 12.1 10.0 87 0.0 29 13 16.1 98.15     LegendNANA
07:00 14.7 10.9 78 0.0 28 9 16.1 98.20     LegendNANA
08:00 17.9 10.3 61 0.0 28 11 16.1 98.21     LegendNANA
09:00 19.8 9.8 52 0.0 30 17 16.1 98.20     LegendNANA
10:00 21.6 10.1 47 0.0 31 18 16.1 98.20     LegendNANA
11:00 22.6 9.5 43 0.0 28 21 16.1 98.19     LegendNANA
12:00 23.5 9.2 40 0.0 30 30 16.1 98.18     LegendNANA
13:00 24.5 9.5 38 0.0 30 22 16.1 98.17 26   LegendNANA
14:00 24.5 10.5 41 0.0 30 24 16.1 98.16 26   LegendNANA
15:00 23.5 10.8 44 0.0 33 24 16.1 98.17 25   LegendNANA
16:00 24.9 10.5 40 0.0 31 28 16.1 98.14 26   LegendNANA
17:00 23.8 10.4 42 0.0 31 17 16.1 98.12 25   LegendNANA
18:00 24.4 9.8 39 0.0 30 18 16.1 98.07 26   LegendNANA
19:00 24.0 10.2 41 0.0 30 15 16.1 98.04 25   LegendNANA
20:00 22.4 10.9 48 0.0 31 11 16.1 98.05     LegendNANA
21:00 19.5 11.1 58 0.0 30 8 16.1 98.05     LegendNANA
22:00 18.3 11.7 65 0.0 28 9 16.1 98.05     LegendNANA
23:00 16.7 11.7 72 0.0 28 11 16.1 98.03     LegendNANA

Notes on Data Quality.

Legend

  • E = Estimated
  • M = Missing
  • NA = Not Available*
  • [empty] = Indicates an unobserved value
Date modified: